| time (UTC) | temp F | wind direction | speed MPH | gust MPH | rain 1hr in | rain 24hr in | rain mn in | humidity % | barometer mb |
| 20260506174521 | 55 | 9 | 4.0 | 7.0 | 0.00 | 0.00 | 0.00 | 69 | 1015.5 |
| 20260506173021 | 56 | 21 | 5.0 | 9.0 | 0.00 | 0.00 | 0.00 | 67 | 1015.3 |
| 20260506171517 | 56 | 1 | 4.0 | 9.0 | 0.00 | 0.00 | 0.00 | 68 | 1015.5 |
| 20260506170016 | 56 | 322 | 6.0 | 11.0 | 0.00 | 0.00 | 0.00 | 68 | 1015.5 |
| 20260506164515 | 56 | 307 | 6.0 | 10.0 | 0.00 | 0.00 | 0.00 | 68 | 1015.5 |
| 20260506163021 | 56 | 18 | 6.0 | 10.0 | 0.00 | 0.00 | 0.00 | 67 | 1015.4 |
| 20260506161514 | 57 | 346 | 5.0 | 11.0 | 0.00 | 0.00 | 0.00 | 66 | 1015.4 |
| 20260506160010 | 58 | 8 | 4.0 | 11.0 | 0.00 | 0.00 | 0.00 | 66 | 1015.3 |
| 20260506154508 | 58 | 46 | 7.0 | 13.0 | 0.00 | 0.00 | 0.00 | 66 | 1015.5 |
| 20260506153007 | 58 | 56 | 6.0 | 11.0 | 0.00 | 0.00 | 0.00 | 65 | 1015.4 |
| 20260506151504 | 59 | 6 | 7.0 | 10.0 | 0.00 | 0.00 | 0.00 | 66 | 1015.4 |
| 20260506150005 | 59 | 13 | 8.0 | 11.0 | 0.00 | 0.00 | 0.00 | 67 | 1015.5 |
| 20260506144503 | 58 | 356 | 7.0 | 11.0 | 0.00 | 0.00 | 0.00 | 67 | 1015.7 |
| 20260506143100 | 59 | 6 | 6.0 | 12.0 | 0.00 | 0.00 | 0.00 | 66 | 1015.8 |
| 20260506141556 | 59 | 11 | 8.0 | 11.0 | 0.00 | 0.00 | 0.00 | 66 | 1015.9 |
| 20260506140053 | 59 | 4 | 7.0 | 13.0 | 0.00 | 0.00 | 0.00 | 68 | 1015.9 |
| 20260506134550 | 58 | 356 | 7.0 | 10.0 | 0.00 | 0.00 | 0.00 | 68 | 1016.0 |
| 20260506133049 | 58 | 354 | 7.0 | 11.0 | 0.00 | 0.00 | 0.00 | 68 | 1016.0 |
| 20260506131553 | 58 | 27 | 8.0 | 11.0 | 0.00 | 0.00 | 0.00 | 68 | 1016.1 |
| 20260506130100 | 57 | 9 | 7.0 | 11.0 | 0.00 | 0.00 | 0.00 | 69 | 1016.0 |
| 20260506124553 | 57 | 35 | 6.0 | 12.0 | 0.00 | 0.00 | 0.00 | 70 | 1016.0 |
| 20260506123044 | 57 | 28 | 7.0 | 11.0 | 0.00 | 0.00 | 0.00 | 71 | 1016.1 |
| 20260506121543 | 57 | 30 | 6.0 | 11.0 | 0.00 | 0.00 | 0.00 | 70 | 1016.1 |
| 20260506120042 | 57 | 15 | 7.0 | 12.0 | 0.00 | 0.00 | 0.00 | 70 | 1016.1 |
| 20260506114542 | 57 | 23 | 8.0 | 12.0 | 0.00 | 0.00 | 0.00 | 70 | 1016.2 |
| 20260506113052 | 57 | 21 | 6.0 | 12.0 | 0.00 | 0.00 | 0.00 | 71 | 1016.1 |
| 20260506111535 | 56 | 32 | 7.0 | 11.0 | 0.00 | 0.00 | 0.00 | 72 | 1016.2 |
| 20260506110035 | 56 | 46 | 8.0 | 12.0 | 0.00 | 0.00 | 0.00 | 72 | 1016.1 |
| 20260506104538 | 56 | 37 | 7.0 | 12.0 | 0.00 | 0.00 | 0.00 | 72 | 1016.2 |
| 20260506103043 | 56 | 41 | 8.0 | 13.0 | 0.00 | 0.00 | 0.00 | 72 | 1016.1 |
| 20260506101543 | 55 | 51 | 8.0 | 12.0 | 0.00 | 0.00 | 0.00 | 72 | 1016.1 |
| 20260506100037 | 55 | 40 | 6.0 | 13.0 | 0.00 | 0.00 | 0.00 | 72 | 1016.0 |
| 20260506094530 | 55 | 62 | 7.0 | 14.0 | 0.00 | 0.00 | 0.00 | 71 | 1016.0 |
| 20260506093038 | 55 | 46 | 6.0 | 12.0 | 0.00 | 0.00 | 0.00 | 72 | 1016.0 |
| 20260506091525 | 54 | 39 | 7.0 | 13.0 | 0.00 | 0.00 | 0.00 | 72 | 1015.8 |
| 20260506090021 | 54 | 39 | 8.0 | 12.0 | 0.00 | 0.00 | 0.00 | 73 | 1015.8 |
| 20260506084518 | 53 | 51 | 6.0 | 12.0 | 0.00 | 0.00 | 0.00 | 73 | 1015.8 |
| 20260506083014 | 52 | 40 | 6.0 | 12.0 | 0.00 | 0.00 | 0.00 | 74 | 1015.9 |
| 20260506081513 | 52 | 37 | 7.0 | 12.0 | 0.00 | 0.00 | 0.00 | 74 | 1015.8 |
| 20260506073016 | 52 | 37 | 6.0 | 10.0 | 0.00 | 0.00 | 0.00 | 77 | 1015.8 |
| 20260506071504 | 51 | 25 | 6.0 | 10.0 | 0.00 | 0.00 | 0.00 | 78 | 1015.7 |
| 20260506061556 | 51 | 21 | 7.0 | 13.0 | 0.00 | 0.00 | 0.00 | 79 | 1015.6 |
| 20260506044637 | 50 | 6 | 9.0 | 16.0 | 0.00 | 0.00 | 0.00 | 80 | 1015.5 |
| 20260506043040 | 50 | 360 | 8.0 | 14.0 | 0.00 | 0.00 | 0.00 | 80 | 1015.6 |
| 20260506041548 | 50 | 11 | 8.0 | 13.0 | 0.00 | 0.00 | 0.00 | 80 | 1015.7 |
| 20260506040039 | 50 | 9 | 8.0 | 15.0 | 0.00 | 0.00 | 0.00 | 79 | 1015.7 |
| 20260506034602 | 50 | 11 | 7.0 | 14.0 | 0.00 | 0.00 | 0.00 | 79 | 1015.7 |
| 20260506033037 | 50 | 1 | 9.0 | 14.0 | 0.00 | 0.00 | 0.00 | 79 | 1015.8 |
| 20260506031540 | 50 | 354 | 8.0 | 14.0 | 0.00 | 0.00 | 0.00 | 78 | 1015.7 |
| 20260506030038 | 50 | 352 | 8.0 | 14.0 | 0.00 | 0.00 | 0.00 | 78 | 1015.8 |
| 20260506024534 | 50 | 23 | 8.0 | 14.0 | 0.00 | 0.00 | 0.00 | 78 | 1015.8 |
| 20260506023035 | 50 | 350 | 8.0 | 15.0 | 0.00 | 0.00 | 0.00 | 78 | 1015.9 |
| 20260506021532 | 50 | 339 | 8.0 | 15.0 | 0.00 | 0.00 | 0.00 | 78 | 1015.9 |
| 20260506020028 | 50 | 25 | 9.0 | 14.0 | 0.00 | 0.00 | 0.00 | 78 | 1015.8 |
| 20260506014529 | 50 | 4 | 11.0 | 17.0 | 0.00 | 0.00 | 0.00 | 79 | 1015.9 |
| 20260506013025 | 50 | 32 | 11.0 | 17.0 | 0.00 | 0.00 | 0.00 | 79 | 1016.0 |
| 20260506011523 | 50 | 356 | 8.0 | 15.0 | 0.00 | 0.00 | 0.00 | 78 | 1016.1 |
| 20260506010022 | 50 | 11 | 9.0 | 15.0 | 0.00 | 0.00 | 0.00 | 78 | 1016.2 |
| 20260506004532 | 50 | 354 | 11.0 | 18.0 | 0.00 | 0.00 | 0.00 | 78 | 1016.2 |
| 20260506003031 | 50 | 20 | 9.0 | 18.0 | 0.00 | 0.00 | 0.00 | 78 | 1016.3 |
| 20260506001517 | 50 | 13 | 11.0 | 15.0 | 0.00 | 0.00 | 0.00 | 78 | 1016.5 |
| 20260506000016 | 50 | 16 | 11.0 | 17.0 | 0.00 | 0.00 | 0.00 | 78 | 1016.5 |
| 20260505234525 | 50 | 8 | 12.0 | 17.0 | 0.00 | 0.00 | 0.00 | 78 | 1016.7 |
| 20260505233012 | 50 | 11 | 9.0 | 17.0 | 0.00 | 0.00 | 0.00 | 77 | 1016.7 |
| 20260505231514 | 50 | 349 | 9.0 | 16.0 | 0.00 | 0.00 | 0.00 | 77 | 1016.6 |
| 20260505230009 | 50 | 324 | 10.0 | 16.0 | 0.00 | 0.00 | 0.00 | 77 | 1016.7 |
| 20260505224508 | 50 | 351 | 11.0 | 18.0 | 0.00 | 0.00 | 0.00 | 77 | 1016.8 |
| 20260505223005 | 50 | 1 | 8.0 | 19.0 | 0.00 | 0.00 | 0.00 | 78 | 1016.8 |
| 20260505221504 | 50 | 355 | 10.0 | 17.0 | 0.00 | 0.00 | 0.00 | 78 | 1016.9 |
| 20260505220011 | 50 | 352 | 12.0 | 19.0 | 0.00 | 0.00 | 0.00 | 78 | 1016.8 |
| 20260505214503 | 50 | 354 | 8.0 | 16.0 | 0.00 | 0.00 | 0.00 | 78 | 1016.8 |
| 20260505213105 | 50 | 339 | 9.0 | 17.0 | 0.00 | 0.00 | 0.00 | 78 | 1017.0 |
| 20260505213001 | 50 | 313 | 9.0 | 17.0 | 0.00 | 0.00 | 0.00 | 78 | 1016.9 |
| 20260505211604 | 50 | 4 | 11.0 | 17.0 | 0.00 | 0.00 | 0.00 | 78 | 1017.1 |
| 20260505211502 | 50 | 344 | 10.0 | 17.0 | 0.00 | 0.00 | 0.00 | 79 | 1017.1 |
| 20260505210059 | 50 | 13 | 10.0 | 17.0 | 0.00 | 0.00 | 0.00 | 79 | 1017.1 |
| 20260505204600 | 50 | 344 | 10.0 | 17.0 | 0.00 | 0.00 | 0.00 | 79 | 1016.9 |
| 20260505203056 | 50 | 8 | 9.0 | 18.0 | 0.00 | 0.00 | 0.00 | 79 | 1016.9 |
| 20260505201554 | 51 | 354 | 10.0 | 16.0 | 0.00 | 0.00 | 0.00 | 79 | 1016.9 |
| 20260505200053 | 51 | 358 | 8.0 | 16.0 | 0.00 | 0.00 | 0.00 | 78 | 1016.7 |
| 20260505194552 | 51 | 349 | 9.0 | 17.0 | 0.00 | 0.00 | 0.00 | 78 | 1016.5 |
| 20260505193056 | 51 | 343 | 12.0 | 18.0 | 0.00 | 0.00 | 0.00 | 78 | 1016.6 |
| 20260505191556 | 51 | 1 | 11.0 | 18.0 | 0.00 | 0.00 | 0.00 | 77 | 1016.5 |
| 20260505190047 | 51 | 354 | 12.0 | 20.0 | 0.00 | 0.00 | 0.00 | 77 | 1016.6 |
| 20260505184545 | 52 | 21 | 11.0 | 18.0 | 0.00 | 0.00 | 0.00 | 76 | 1016.5 |
| 20260505183045 | 52 | 18 | 10.0 | 18.0 | 0.00 | 0.00 | 0.00 | 75 | 1016.6 |
| 20260505181544 | 53 | 15 | 9.0 | 17.0 | 0.00 | 0.00 | 0.00 | 75 | 1016.6 |
| 20260505180051 | 53 | 339 | 8.0 | 17.0 | 0.00 | 0.00 | 0.00 | 74 | 1016.6 |